Location: Krakow
(50.0830°N, 19.9170°E)
Time: 09:53:02
(UTC+01:00)

Transit 2A - Pass Details

Date: 10 February 2023
Orbit: 591 x 964 km, 66.7° (Epoch: 21 March)

Event Time Altitude Azimuth Distance (km) Brightness Sun altitude
Rises 22:02:54 0° 323° (NW) 3,443 10.1 -47.6°
Reaches altitude 10° 22:05:31 10° 331° (NNW) 2,555 9.2 -47.8°
Enters shadow 22:05:38 11° 332° (NNW) 2,514 9.1 -47.9°
Maximum altitude 22:11:05 38° 39° (NE) 1,392 - -48.4°
Drops below altitude 10° 22:16:55 10° 106° (ESE) 2,689 - -49.0°
Sets 22:19:43 0° 115° (ESE) 3,644 - -49.3°
